Key statistics
Satellite FENGYUN 1C DEB at a glance.
Uptime
9472
Days in orbit
Revolutions
≈ 16.0
Per day
Orbit
SSO
Sun Synchronous Orbit
Inclination
96.9
Latest
Satellite identification and parameters
Extended collection of information and parameters for FENGYUN 1C DEB.
Object identification
Identified? True
Debris? True
Object name: FENGYUN 1C DEB
International designator: 1999-025NQ
Object number (NORAD): 30039
Object ID (CCSDS): 30039
Country: PEOPLES REPUBLIC OF CHINA (PRC)
Current information (Y/N): Y
RCS size: SMALL
Orbital parameters
Decay date: April 15, 2025
Period: 89.948 minutes
Inclination: 96.9364 deg
SMA: 6649.978 km
Apoapsis: 286.401 km
Periapsis: 257.284 km
RAAN: 86.9509 deg
Eccentricy: 0.0021892
Argument of periapsis: 156.9758 deg
Mean anomaly: 203.2508 deg
Mean motion: 16.0093056 rev/day
Mean motion (dot): 0.0736008 rev/day2
B* drag term: 0.019091 1/REarth
Two-line elements (TLE)
Creation date: April 12, 2025, 3 a.m.
Reference frame: TEME
Reference center: EARTH
Epoch: April 11, 2025, 11:44 a.m. UTC
TLE line 0: 0 FENGYUN 1C DEB
TLE line 1: 1 30039U 99025NQ 25101.48948111 .07360080 12448+0 19091-1 0 9998
TLE line 2: 2 30039 96.9364 86.9509 0021892 156.9758 203.2508 16.00930560959850
Live tracking on map
Satellite FENGYUN 1C DEB has decayed and is no longer in orbit. No tracking available.
In-orbit conjunctions
Satellite FENGYUN 1C DEB has decayed and is no longer in orbit. No conjunctions available.
Associated space launch
Chinese polar orbiting meteorological satellite
FENGYUN 1C DEB was lifted into orbit during the mission ‘Long March 4B | Feng Yun 1C’, on board a Long March 4B space rocket.
The launch took place on May 10, 1999, 1:33 a.m. from Launch Complex 7.
For more information about the launch, click the button.
Long March 4B | Feng Yun 1C
Agency: N/A
Status: Launch Successful
Launch date: May 10, 1999, 1:33 a.m. UTC
Rocket: Long March 4B
Launch pad: Launch Complex 7
Location: Taiyuan Satellite Launch Center, People's Republic of China
...
Latest news about this satellite
There are no fresh news available about this satellite. Check back as we update our databases every day.
Newsletter sign-up
Weekly statistics, charts and insights to help you stay on top of the space industry.
